Regional Weather Roundup
Issued by NWS

Home | Current Version | Previous Version | Text Only | Print | Product List | Glossary Off
Versions: 1 2 3 4 5 6 7 8 9 10 11 12 13 14 15 16 17 18 19 20 21 22 23 24 25 26 27 28 29 30 31 32 33 34 35 36 37 38 39 40 41 42 43 44 45 46 47 48 49 50

000
ASUS43 KMKX 212121
RWRWI

WISCONSIN REGIONAL WEATHER ROUNDUP
NATIONAL WEATHER SERVICE MILWAUKEE/SULLIVAN WI
300 PM CST TUE FEB 21 2017

NOTE: "FAIR" INDICATES FEW OR NO CLOUDS BELOW 12,000 FEET WITH NO
SIGNIFICANT WEATHER AND/OR OBSTRUCTIONS TO VISIBILITY.

WIZ001-002-006>008-014>016-023>028-212200-
NORTHWEST WISCONSIN

CITY           SKY/WX    TMP DP  RH WIND       PRES   REMARKS
SUPERIOR ARPT  MOSUNNY   54  36  50 S5        29.71S
ASHLAND        PTSUNNY   55  34  45 S13       29.73F
HAYWARD        MOSUNNY   52  35  52 S10       29.74F
SIREN          MOSUNNY   53  37  54 S13       29.73F
CUMBERLAND     MOSUNNY   46  36  66 S10       29.75F
RICE LAKE      MOSUNNY   52  37  57 SE7       29.77F
CHETEK         MOSUNNY   52  38  60 SE10G16   29.77F
LADYSMITH      SUNNY     51  38  60 S8        29.81F
EAU CLAIRE     MOSUNNY   57  37  47 S13       29.78F
MENOMONIE      CLOUDY    57  39  50 SE8       29.77F
NEW RICHMOND   PTSUNNY   58  40  51 S12G20    29.74F
OSCEOLA        NOT AVBL
$$

WIZ003>005-009-010-017-018-212200-
NORTH CENTRAL WISCONSIN

CITY           SKY/WX    TMP DP  RH WIND       PRES   REMARKS
MANITOWISH WTR SUNNY     51  30  45 S7        29.79S
ARBOR VITAE    SUNNY     57  30  35 SW12        N/A
WOODRUFF       SUNNY     57  30  35 SW12        N/A
RHINELANDER    SUNNY     56  32  40 SW12      29.81F
EAGLE RIVER    SUNNY     53  28  38 SW9       29.80F
LAND O LAKES   SUNNY     54  26  33 SW5       29.80F
PHILLIPS       PTSUNNY   53  32  44 SW12      29.78F
TOMAHAWK       SUNNY     55  30  38 S5        29.82F
MEDFORD        SUNNY     50  40  68 S9        29.82F
MERRILL        NOT AVBL
$$

WIZ029-030-035-036-043>047-212200-
CENTRAL WISCONSIN

CITY           SKY/WX    TMP DP  RH WIND       PRES   REMARKS
WAUSAU         SUNNY     53  35  50 S7        29.83F
MOSINEE        MOSUNNY   54  39  58 S8        29.86F
MARSHFIELD     SUNNY     55  40  56 S9        29.83F
STEVENS POINT  SUNNY     56  34  43 S7        29.86S
WAUPACA        SUNNY     62  30  30 SW5       29.86F
WAUTOMA        SUNNY     62  36  37 S8        29.86F
WISC RAPIDS    SUNNY     59  37  44 S7        29.86F
CAMP DOUGLAS   MOSUNNY   63  34  34 S6        29.85F
$$

WIZ011>013-019>022-031-037>040-048>050-212200-
NORTHEAST WISCONSIN

CITY           SKY/WX    TMP DP  RH WIND       PRES   REMARKS
ANTIGO         SUNNY     51  34  52 SW7       29.84S
SHAWANO        SUNNY     60  37  42 SW5       29.86S
OCONTO         SUNNY     58  35  42 W7        29.84F
STURGEON BAY   SUNNY     57  38  48 SW10      29.86F
GREEN BAY      SUNNY     58  42  55 S7        29.86F
MANITOWOC      SUNNY     59  38  45 W7        29.88F
APPLETON       MOSUNNY   57  36  44 SW7       29.86F
CLINTONVILLE   SUNNY     59  32  36 SW6       29.86S
OSHKOSH        SUNNY     59  42  53 S7        29.87F
$$

WIZ032>034-041-042-053>061-212200-
SOUTHWEST WISCONSIN

CITY           SKY/WX    TMP DP  RH WIND       PRES   REMARKS
LA CROSSE      SUNNY     61  39  44 S13       29.84F
SPARTA         SUNNY     62  32  32 SW7       29.86S
VIROQUA        SUNNY     58  35  41 S12       29.87F
BOSCOBEL       SUNNY     65  33  30 W7        29.88F
PRAIRIE DU CHI SUNNY     60  37  41 S6        29.88S
PLATTEVILLE    SUNNY     61  42  49 S7        29.90S
$$

WIZ056-057-062-063-064-067-068-212200-
SOUTH CENTRAL WISCONSIN

CITY           SKY/WX    TMP DP  RH WIND       PRES   REMARKS
REEDSBURG      SUNNY     62  33  33 SW8       29.87S
BARABOO/DELLS  SUNNY     62  31  31 W7        29.87F
LONE ROCK      SUNNY     64  40  41 W5        29.88F
MINERAL POINT  SUNNY     63  36  36 S7        29.89S
MADISON        MOSUNNY   60  39  45 SE3       29.88F
MIDDLETON      SUNNY     65  33  30 SW6       29.88F
WATERTOWN      SUNNY     61  39  44 W3        29.89S
MONROE         SUNNY     63  30  29 SW9       29.89F
JANESVILLE     MOSUNNY   66  36  32 SW7       29.89F
$$

WIZ051-052-058>065-066-070>072-212200-
SOUTHEAST WISCONSIN

CITY           SKY/WX    TMP DP  RH WIND       PRES   REMARKS
MILWAUKEE      MOSUNNY   65  38  36 SW8       29.89S
WAUKESHA       SUNNY     61  36  39 W7        29.90S
MILWAUKEE/TIMM SUNNY     64  28  25 W5        29.89S
RACINE         SUNNY     63  45  51 VRB3      29.90F
KENOSHA        SUNNY     65  40  39 CALM      29.89S
FOND DU LAC    SUNNY     59  40  49 SW5       29.88F
SHEBOYGAN      SUNNY     61  36  39 NW5       29.88S
WEST BEND      SUNNY     63  32  31 SW6       29.88S
JUNEAU         SUNNY     58  42  55 W5        29.90S
$$

LSZ147-162-212200-
LAKE SUPERIOR

STATION/POSITION TIME  TEMP    WIND        PRES    WAVE
                       AIR SEA DIR/SP/G            HT/PER
                 (UTC) (F)     (DEG/KT/KT) (MB)    (FT/S)
DEVILS ISLAND    2100   43      CALM  /  1 1007.5F
PORT WING        2030   41     350/  3/  3 1006.8F
SAXON HARBOR     2030   57     200/  7/ 14 1007.5F
$$

LMZ867-665-643>646-212200-
LAKE MICHIGAN

STATION/POSITION TIME  TEMP    WIND        PRES    WAVE
                       AIR SEA DIR/SP/G            HT/PER
                 (UTC) (F)     (DEG/KT/KT) (MB)    (FT/S)
CHAMBERS ISLAND  2040   51     190/  6/ 16 1010.2F
NORTHPORT PIER   2040   59     220/  3/  9 1010.2F
SISTER BAY       2035   62     280/  7/  8   N/A
KEWAUNEE LAKESHO 2054   59     280/  6/  9 1010.9F
SHEBOYGAN LAKESH 2100   42     140/  4/  5 1012.1F
PORT WASHINGTON  2030   49     150/  3/  3 1012.9F
MILWAUKEE LAKESH 2100   44     360/  1/  2   N/A
KENOSHA   LAKESH 2100   49     150/  7/  8 1012.2
$$

TC  - TEMPERATURE IN CELSIUS
VSB - VISIBILITY IN STATUTE MILES
WCI - WIND CHILL INDEX
HX  - HEAT INDEX





USA.gov is the U.S. government's official web portal to all federal, state and local government web resources and services.